Regional Weather Roundup
Issued by NWS New Orleans/Baton Rouge, LA

Home | Current Version | Previous Version | Text Only | Print | Product List | Glossary Off
Versions: 1 2 3 4 5 6 7 8 9 10 11 12 13 14 15 16 17 18 19 20 21 22 23 24 25 26 27 28 29 30 31 32 33 34 35 36 37 38 39 40 41 42 43 44 45 46 47 48 49 50

077
ASUS44 KLIX 011611
RWRLIX
NEW ORLEANS REGIONAL WEATHER ROUNDUP
NATIONAL WEATHER SERVICE NEW ORLEANS LA
1100 AM CDT WED APR 01 2015

NOTE: "FAIR" INDICATES FEW OR NO CLOUDS BELOW 12,000 FEET WITH NO
      SIGNIFICANT WEATHER AND/OR OBSTRUCTIONS TO VISIBILITY.
      SKY/WX - SKY CONDITION AND SIGNIFICANT WEATHER.
      TMP - AIR TEMPERATURE.     DP    - DEWPOINT TEMPERATURE.
      RH  - RELATIVE HUMIDITY.   PRES  - PRESSURE.
      HI  - HEAT INDEX.          WCI   - WIND CHILL INDEX.

*  THESE STATIONS ARE NOT NWS OR FAA STATIONS AND ARE NOT UNDER
   NWS QUALITY CONTROL.

LAZ038-040-048-061>063-065>067-069-011700-
SOUTHEAST LOUISIANA

CITY           SKY/WX    TMP DP  RH WIND       PRES   REMARKS
N.O. AUDUBON     N/A     82  68  63 MISG        N/A
N.O. INTL ARPT MOSUNNY   77  61  57 SW9       30.11R
N.O. LAKEFRONT MOSUNNY   79  65  62 N5        30.12S
SLIDELL        MOSUNNY   77  62  59 W5        30.10F
BATON ROUGE    PTSUNNY   76  63  64 SW6       30.10R
BOOTHVILLE     PTSUNNY   74  67  78 E6        30.14R
BELLE CHASSE   PTSUNNY   74  63  68 W5        30.11S
BOGALUSA*        N/A     72  65  78 CALM      30.13S HAZE
GALLIANO*      PTSUNNY   79  67  67 S5        30.12S
NEW ROADS*     PTSUNNY   74  67  80 S3        30.10S
GONZALES*      PTSUNNY   77  63  61 SW7       30.10R
HAMMOND*       MOSUNNY   79  61  53 SW6       30.12R
HOUMA*         PTSUNNY   77  66  69 SW3       30.11R
PORT FOURCHON* MOSUNNY   75  68  78 SE8       30.15R

$$

MSZ070-080>082-011700-
SOUTHERN MISSISSIPPI

CITY           SKY/WX    TMP DP  RH WIND       PRES   REMARKS
MCCOMB         CLOUDY    71  65  81 CALM      30.11S
GULFPORT         N/A     75  65  70 S10       30.11S
BILOXI         SUNNY     74  65  73 S8        30.12S
PASCAGOULA     MOSUNNY   77  62  59 NW5       30.12S
STENNIS ARPT*  MOSUNNY   75  57  53 MISG      30.12S

$$

COASTAL OBSERVATIONS
LAKE AND NEARSHORE STATIONS

STATION/POSITION TIME  TEMP    WIND        PRES    WAVE
                       AIR SEA DIR/SP/G            HT/PER
                 (UTC) (F)     (DEG/KT/KT) (MB)    (FT/S)
PASCAGOULA       1500   74     170/  3/  6 1019.6
WAVELAND YACHT   1500   70 69  150/  5/  6 1019.8
GRAND ISLE       1500   73 71   90/  3/  5 1019.5
SOUTHWEST PASS   1500   72 55   80/  7/  8 1020.2
NEW CANAL        1500   72     340/  3/  4 1019.9
SHELL BEACH      1500   73 71   50/  4/  5 1019.9

OFFSHORE STATIONS

STATION/POSITION TIME  TEMP    WIND        PRES    WAVE
                       AIR SEA DIR/SP/G            HT/PER
                 (UTC) (F)     (DEG/KT/KT) (MB)    (FT/S)
64 S DAUPHIN ISL 1550   72 73   60/  8/  8 1020.9    2/ 5

$$




USA.gov is the U.S. government's official web portal to all federal, state and local government web resources and services.